カタログに戻る

STARLINK-5303

運用中通信VLEO
NORAD 55630·PAYLOAD·🇺🇸 United States

打ち上げ Feb 17, 2023 から Vandenberg Space Force Base

Loading…

次のパス (今後24時間)

TLE

最新Source: CelesTrak SupGP

元期: Sep 15, 2026, 01:33 UTC

1 55630C 23021C   26258.06506944 -.00020436  00000+0 -17127-2 0  2588
2 55630  70.0001  87.0339 0002827 272.5337  76.3522 14.98339502    17

AllMySatでSTARLINK-5303をリアルタイム追跡

Download on the App Store